TimeEST,TemperatureF,Dew PointF,Humidity,Sea Level PressureIn,VisibilityMPH,Wind Direction,Wind SpeedMPH,Gust SpeedMPH,PrecipitationIn,Events,Conditions,WindDirDegrees,DateUTC
12:54 AM,15.1,3.9,61,29.95,-9999.0,West,9.2,-,N/A,,Unknown,260,2014-02-26 05:54:00
1:54 AM,15.1,3.0,59,29.94,-9999.0,West,10.4,-,N/A,,Unknown,260,2014-02-26 06:54:00
2:54 AM,14.0,3.0,62,29.94,-9999.0,WSW,10.4,-,N/A,,Unknown,250,2014-02-26 07:54:00
3:54 AM,12.9,3.0,65,29.93,-9999.0,WSW,9.2,-,N/A,,Unknown,250,2014-02-26 08:54:00
4:54 AM,14.0,3.0,62,29.92,-9999.0,WSW,6.9,-,N/A,,Unknown,240,2014-02-26 09:54:00
5:54 AM,14.0,3.0,62,29.91,-9999.0,SW,8.1,-,N/A,,Unknown,230,2014-02-26 10:54:00
6:54 AM,14.0,3.9,64,29.88,-9999.0,South,5.8,-,N/A,,Unknown,180,2014-02-26 11:54:00
7:54 AM,15.1,5.0,64,29.89,-9999.0,South,5.8,-,N/A,,Unknown,170,2014-02-26 12:54:00
8:54 AM,17.1,6.1,62,29.89,-9999.0,SSW,5.8,-,N/A,,Unknown,200,2014-02-26 13:54:00
9:54 AM,19.0,6.1,57,29.88,-9999.0,SW,8.1,-,N/A,,Unknown,230,2014-02-26 14:54:00
10:54 AM,21.9,6.1,51,29.88,-9999.0,South,8.1,-,N/A,,Unknown,190,2014-02-26 15:54:00
11:54 AM,25.0,8.1,49,29.84,-9999.0,SW,10.4,16.1,N/A,,Unknown,220,2014-02-26 16:54:00
12:54 PM,27.0,5.0,39,29.80,-9999.0,WSW,13.8,27.6,N/A,,Unknown,250,2014-02-26 17:54:00
1:54 PM,26.1,3.9,39,29.78,-9999.0,WSW,16.1,24.2,N/A,,Unknown,240,2014-02-26 18:54:00
2:54 PM,28.0,6.1,39,29.77,-9999.0,West,18.4,28.8,N/A,,Unknown,260,2014-02-26 19:54:00
3:54 PM,26.1,7.0,44,29.77,-9999.0,West,13.8,19.6,N/A,,Unknown,280,2014-02-26 20:54:00
4:54 PM,24.1,6.1,46,29.78,-9999.0,WNW,15.0,26.5,N/A,,Unknown,300,2014-02-26 21:54:00
5:54 PM,21.0,1.9,44,29.81,-9999.0,WNW,12.7,24.2,N/A,,Unknown,300,2014-02-26 22:54:00
6:54 PM,19.0,-5.1,34,29.83,-9999.0,NW,16.1,27.6,N/A,,Unknown,310,2014-02-26 23:54:00
7:54 PM,17.1,-6.0,36,29.85,-9999.0,NW,13.8,23.0,N/A,,Unknown,310,2014-02-27 00:54:00
8:54 PM,14.0,-7.1,39,29.86,-9999.0,NW,9.2,18.4,N/A,,Unknown,310,2014-02-27 01:54:00
9:54 PM,12.0,-7.1,42,29.88,-9999.0,WNW,9.2,-,N/A,,Unknown,300,2014-02-27 02:54:00
10:54 PM,10.0,-5.1,51,29.89,-9999.0,WNW,9.2,-,N/A,,Unknown,290,2014-02-27 03:54:00
11:54 PM,9.0,-4.0,56,29.88,-9999.0,WNW,9.2,-,N/A,,Unknown,300,2014-02-27 04:54:00